AirNav   Bose Proflight Series 2 Wireless viation Headset
 
 1320 users online  

M11 Copiah County Airport
Crystal Springs, Mississippi, USA

GOING TO CRYSTAL SPRINGS?


FAA INFORMATION EFFECTIVE 10 OCTOBER 2019

Location

FAA Identifier: M11
Lat/Long: 31-54-08.8000N 090-22-00.3000W
31-54.146667N 090-22.005000W
31.9024444,-90.3667500
(estimated)
Elevation: 435.4 ft. / 132.7 m (surveyed)
Variation: 01W (2020)
From city: 4 miles S of CRYSTAL SPRINGS, MS
(LCTD 3SM NE OF HAZLEHURST)
Time zone: UTC -5 (UTC -6 during Standard Time)
Zip code: 39083

Airport Operations

Airport use: Open to the public
Activation date: 10/1964
Control tower: no
ARTCC: MEMPHIS CENTER
FSS: GREENWOOD FLIGHT SERVICE STATION
NOTAMs facility: GWO (NOTAM-D service available)
Attendance: MON-SAT 0800-1700, ALL SUN 0800-1200
MON-FRI EVENINGS AFTER 1700 ONLY.
Wind indicator: yes
Segmented circle: no
Lights: SS-SR
Beacon: white-green (lighted land airport)
Operates sunset to sunrise.

Airport Communications

CTAF: 122.9
WX AWOS-3P at 1R7 (18 nm S): 118.125 (601-833-3209)
  • APCH/DEP SVC PRVDD BY MEMPHIS ARTCC ON FREQS 132.5/259.1 (JACKSON RCAG).

Nearby radio navigation aids

VOR radial/distance  VOR name  Freq  Var
MHZr204/34.7MAGNOLIA VORTAC113.2001W
MCBr348/36.3MC COMB VORTAC116.7003E

 
NDB name  Hdg/Dist  Freq  Var  ID
TALLULAH120/39.334402ETKH - -.- ....

Airport Services

Fuel available: 100LL
FUEL 24 HOUR CREDIT CARD SVC AVBL.
Parking: hangars and tiedowns
Airframe service: MAJOR
Powerplant service: MAJOR
Bottled oxygen: NONE
Bulk oxygen: NONE

Runway Information

Runway 18/36

Dimensions: 4007 x 75 ft. / 1221 x 23 m
Surface: asphalt, in good condition
Weight bearing capacity: 
Single wheel: 10.0
Runway edge lights: medium intensity
RUNWAY 18  RUNWAY 36
Latitude: 31-54.476730N31-53.818115N
Longitude: 090-22.036578W090-21.973243W
Elevation: 435.3 ft.395.6 ft.
Traffic pattern: leftleft
Runway heading: 176 magnetic, 175 true356 magnetic, 355 true
Markings: basic, in good conditionbasic, in good condition
Visual slope indicator: 2-light PAPI on right (4.00 degrees glide path)2-light PAPI on left (3.00 degrees glide path)
Runway end identifier lights: yesyes
Touchdown point: yes, no lightsyes, no lights
Obstructions: 68 ft. trees, 1400 ft. from runway, 200 ft. left of centerline, 17:1 slope to clear55 ft. trees, 2000 ft. from runway, 300 ft. right of centerline, 32:1 slope to clear

Airport Ownership and Management from official FAA records

Ownership: Publicly-owned
Owner: COPIAH COUNTY
PO BOX 551
HAZELHURST, MS 39083
Phone 601-894-1858
MR. RONNIE BARLOW-COUNTY ADMINISTRATOR
Manager: KENNETH E. AASAND
1001 AIRPORT LN.
HAZELHURST, MS 39083
Phone 601-988-2788

Airport Operational Statistics

Aircraft based on the field: 20
Single engine airplanes: 18
Multi engine airplanes: 1
Ultralights: 1
    
Aircraft operations: avg 21/day *
43% transient general aviation
34% military
22% local general aviation
* for 12-month period ending 15 April 2019

Additional Remarks

FOR CD CTC MEMPHIS ARTCC AT 901-368-8453.

Instrument Procedures

NOTE: All procedures below are presented as PDF files. If you need a reader for these files, you should download the free Adobe Reader.

NOT FOR NAVIGATION. Please procure official charts for flight.
FAA instrument procedures published for use from 10 October 2019 at 0901Z to 7 November 2019 at 0900Z.

 
IAPs - Instrument Approach Procedures
RNAV (GPS) RWY 18 **CHANGED**   download (168KB)
RNAV (GPS) RWY 36 **CHANGED**   download (204KB)
NOTE: Special Take-Off Minimums/Departure Procedures apply   download (215KB)

Other nearby airports with instrument procedures:

1R7 - Brookhaven-Lincoln County Airport (18 nm S)
KJVW - John Bell Williams Airport (24 nm N)
KHKS - Hawkins Field Airport (27 nm N)
KJAN - Jackson-Medgar Wiley Evers International Airport (29 nm NE)
17M - Magee Municipal Airport (29 nm E)
 
Loc | Ops | Rwys | IFR | FBO | Links
Com | Nav | Svcs | Stats | Notes
Area around M11 (Copiah County Airport)
 
Road maps at: MapQuest Bing Google
 
Aerial photo
WARNING: Photo may not be current or correct
Aerial photo of M11 (Copiah County Airport)
Photo by Kenneth Aasand
Photo taken 03-Oct-2014
looking northwest.

Do you have a better or more recent aerial photo of Copiah County Airport that you would like to share? If so, please send us your photo.

 
Sectional chart

 
Airport distance calculator
Flying to Copiah County Airport? Find the distance to fly.

From to M11

Sunrise and sunset
Times for 18-Oct-2019
 Local
(UTC-5)
 Zulu
(UTC)
Morning civil twilight06:4311:43
Sunrise07:0812:08
Sunset18:2523:25
Evening civil twilight18:5023:50

Current date and time
Zulu (UTC)  18-Oct-2019 20:04:23
Local (UTC-5)  18-Oct-2019 15:04:23
 
METAR
K1R7 
18nm S 
181955Z AUTO 01005KT 10SM CLR 20/09 A2987 RMK AO2
KJVW 
24nm N 
181955Z AUTO VRB05KT 10SM CLR 23/07 A2987 RMK AO2
KHKS 
27nm N 
181953Z 11005KT 10SM CLR 22/07 A2989 RMK AO2 SLP113 T02220072 $
KJAN 
29nm NE 
181954Z 08004KT 10SM FEW150 SCT250 21/07 A2989 RMK AO2 SLP118 T02060067
KMBO 
35nm NE 
181955Z AUTO 00000KT 10SM CLR 18/07 A2990 RMK AO2
TAF
KHKS 
27nm N 
181720Z 1818/1918 07007KT P6SM SCT250 FM191200 19003KT P6SM SCT150
KJAN 
29nm NE 
181720Z 1818/1918 07007KT P6SM SCT250 FM191200 19003KT P6SM SCT150
NOTAMs
Click for the latest NOTAMs
NOTAMs are issued by the DoD/FAA and will open in a separate window not controlled by AirNav.

 

 
 

FBO, Fuel Providers, and Aircraft Ground Support

  
 Business Name 
 
 Contact 
 
 Services / Description 
 
Fuel Prices
 
Comments
  
Grassroots Aviation Inc. 601-647-0727
601-988-2788
[email]
Aviation fuel, Aircraft maintenance, Courtesy transportation, Pilots lounge / snooze room, Public telephone, Restrooms

More info about Grassroots Aviation Inc.
100LL
SS $3.90 
 Updated 15-Oct-2019
 
   2 read write
SS=Self service
Update Fuel Prices
 

Would you like to see your business listed on this page?

 If your business provides an interesting product or service to pilots, flight crews, aircraft, or users of the Copiah County Airport, you should consider listing it here.  To start the listing process, click on the button below
 
Add a business
 

Other Pages about Copiah County Airport

Update a link
 
Copyright © AirNav, LLC. All rights reserved. Privacy Policy  Contact